TimeCDT,TemperatureF,Dew PointF,Humidity,Sea Level PressureIn,VisibilityMPH,Wind Direction,Wind SpeedMPH,Gust SpeedMPH,PrecipitationIn,Events,Conditions,WindDirDegrees,DateUTC
12:15 AM,59.9,53.1,78,29.98,10.0,Calm,Calm,-,N/A,,Unknown,0,2013-09-24 05:15:00
12:35 AM,59.0,53.1,81,29.98,10.0,Calm,Calm,-,N/A,,Unknown,0,2013-09-24 05:35:00
12:55 AM,55.9,51.6,85,29.97,10.0,Calm,Calm,-,N/A,,Unknown,0,2013-09-24 05:55:00
1:15 AM,55.2,52.0,89,29.97,10.0,Calm,Calm,-,N/A,,Unknown,0,2013-09-24 06:15:00
1:35 AM,54.1,50.9,89,29.98,10.0,Calm,Calm,-,N/A,,Unknown,0,2013-09-24 06:35:00
1:55 AM,53.4,50.5,90,29.98,10.0,Calm,Calm,-,N/A,,Unknown,0,2013-09-24 06:55:00
2:35 AM,53.1,50.4,91,29.98,10.0,Calm,Calm,-,N/A,,Unknown,0,2013-09-24 07:35:00
2:55 AM,55.2,52.2,89,29.97,10.0,Calm,Calm,-,N/A,,Unknown,0,2013-09-24 07:55:00
3:15 AM,55.2,52.2,89,29.97,10.0,Calm,Calm,-,N/A,,Unknown,0,2013-09-24 08:15:00
3:35 AM,55.4,52.3,89,29.97,10.0,Calm,Calm,-,N/A,,Unknown,0,2013-09-24 08:35:00
3:55 AM,55.6,52.7,90,29.97,10.0,Calm,Calm,-,N/A,,Unknown,0,2013-09-24 08:55:00
4:35 AM,55.8,52.5,89,29.97,10.0,Calm,Calm,-,N/A,,Unknown,0,2013-09-24 09:35:00
4:55 AM,55.4,52.3,89,29.97,10.0,Calm,Calm,-,N/A,,Unknown,0,2013-09-24 09:55:00
5:15 AM,55.2,52.2,89,29.97,10.0,East,3.5,-,N/A,,Unknown,80,2013-09-24 10:15:00
5:35 AM,55.8,52.7,89,29.97,10.0,East,3.5,-,N/A,,Unknown,90,2013-09-24 10:35:00
5:55 AM,55.8,52.7,89,29.98,10.0,East,3.5,-,N/A,,Unknown,80,2013-09-24 10:55:00
6:15 AM,55.9,52.7,89,29.98,10.0,Calm,Calm,-,N/A,,Unknown,0,2013-09-24 11:15:00
6:35 AM,55.8,52.7,89,29.98,10.0,East,3.5,-,N/A,,Unknown,90,2013-09-24 11:35:00
6:55 AM,55.9,52.7,89,29.97,10.0,East,3.5,-,N/A,,Unknown,90,2013-09-24 11:55:00
7:15 AM,56.1,52.7,88,29.97,10.0,Calm,Calm,-,N/A,,Unknown,0,2013-09-24 12:15:00
7:35 AM,57.7,53.6,86,29.96,10.0,East,3.5,-,N/A,,Unknown,80,2013-09-24 12:35:00
7:55 AM,59.4,54.9,85,29.96,10.0,East,3.5,-,N/A,,Unknown,80,2013-09-24 12:55:00
8:15 AM,61.7,55.9,81,29.96,10.0,East,4.6,-,N/A,,Unknown,90,2013-09-24 13:15:00
8:35 AM,63.9,56.5,77,29.95,10.0,East,4.6,-,N/A,,Unknown,90,2013-09-24 13:35:00
8:55 AM,66.2,57.0,72,29.94,10.0,East,6.9,-,N/A,,Unknown,90,2013-09-24 13:55:00
9:15 AM,68.2,57.6,69,29.93,10.0,East,4.6,-,N/A,,Unknown,100,2013-09-24 14:15:00
9:35 AM,70.9,58.5,65,29.94,10.0,East,4.6,-,N/A,,Unknown,100,2013-09-24 14:35:00
9:55 AM,73.0,58.8,61,29.94,10.0,East,3.5,-,N/A,,Unknown,100,2013-09-24 14:55:00
10:15 AM,74.3,59.0,59,29.94,10.0,East,4.6,-,N/A,,Unknown,90,2013-09-24 15:15:00
10:35 AM,77.0,59.4,54,29.94,10.0,SE,5.8,-,N/A,,Unknown,140,2013-09-24 15:35:00
10:55 AM,78.1,59.0,52,29.94,10.0,ESE,8.1,-,N/A,,Unknown,120,2013-09-24 15:55:00
11:15 AM,78.4,59.2,51,29.93,10.0,SE,6.9,-,N/A,,Unknown,130,2013-09-24 16:15:00
11:35 AM,80.8,59.9,49,29.92,10.0,ESE,5.8,-,N/A,,Unknown,110,2013-09-24 16:35:00
11:55 AM,81.5,58.1,45,29.90,10.0,ESE,8.1,-,N/A,,Unknown,120,2013-09-24 16:55:00
12:15 PM,81.7,57.6,44,29.90,10.0,ESE,9.2,16.1,N/A,,Unknown,120,2013-09-24 17:15:00
12:55 PM,80.6,58.3,46,29.91,10.0,SSE,9.2,-,N/A,,Unknown,150,2013-09-24 17:55:00
1:15 PM,82.2,57.9,43,29.90,10.0,SE,9.2,-,N/A,,Unknown,130,2013-09-24 18:15:00
1:35 PM,82.6,58.3,43,29.89,10.0,SE,6.9,-,N/A,,Unknown,130,2013-09-24 18:35:00
1:55 PM,81.9,57.6,43,29.88,10.0,ESE,8.1,-,N/A,,Unknown,120,2013-09-24 18:55:00
2:15 PM,83.8,57.6,41,29.87,10.0,ESE,6.9,-,N/A,,Unknown,110,2013-09-24 19:15:00
2:35 PM,86.0,57.6,38,29.87,10.0,SE,9.2,16.1,N/A,,Unknown,130,2013-09-24 19:35:00
2:55 PM,85.8,57.4,38,29.85,10.0,SE,11.5,-,N/A,,Unknown,130,2013-09-24 19:55:00
3:15 PM,83.8,57.6,41,29.85,10.0,ESE,10.4,-,N/A,,Unknown,120,2013-09-24 20:15:00
3:35 PM,82.4,58.1,43,29.85,10.0,ESE,8.1,-,N/A,,Unknown,120,2013-09-24 20:35:00
3:55 PM,83.8,58.3,42,29.85,10.0,ESE,4.6,-,N/A,,Unknown,120,2013-09-24 20:55:00
4:15 PM,82.6,58.3,43,29.84,10.0,East,5.8,-,N/A,,Unknown,100,2013-09-24 21:15:00
4:35 PM,82.8,58.6,44,29.83,10.0,SE,5.8,-,N/A,,Unknown,130,2013-09-24 21:35:00
4:55 PM,82.8,59.0,44,29.83,10.0,East,4.6,-,N/A,,Unknown,100,2013-09-24 21:55:00
5:15 PM,81.7,59.9,47,29.83,10.0,Calm,Calm,-,N/A,,Unknown,0,2013-09-24 22:15:00
5:35 PM,80.2,60.3,50,29.83,10.0,East,3.5,-,N/A,,Unknown,90,2013-09-24 22:35:00
5:55 PM,79.3,60.6,53,29.83,10.0,East,3.5,-,N/A,,Unknown,80,2013-09-24 22:55:00
6:15 PM,78.6,60.4,54,29.83,10.0,Calm,Calm,-,N/A,,Unknown,0,2013-09-24 23:15:00
6:35 PM,77.9,60.8,56,29.83,10.0,Calm,Calm,-,N/A,,Unknown,0,2013-09-24 23:35:00
6:55 PM,75.6,64.8,69,29.84,10.0,South,6.9,-,N/A,Rain-Thunderstorm,Light Thunderstorms and Rain,180,2013-09-24 23:55:00
7:15 PM,72.7,66.4,81,29.85,10.0,SW,4.6,-,N/A,Rain,Light Rain,220,2013-09-25 00:15:00
7:35 PM,72.1,67.6,86,29.84,10.0,South,3.5,-,N/A,Rain,Light Rain,180,2013-09-25 00:35:00
7:55 PM,71.6,68.0,88,29.84,10.0,East,3.5,-,0.01,Rain,Rain,80,2013-09-25 00:55:00
8:15 PM,70.9,67.6,89,29.84,10.0,East,3.5,-,N/A,,Unknown,80,2013-09-25 01:15:00
8:35 PM,70.0,67.3,91,29.84,7.0,Calm,Calm,-,N/A,,Unknown,0,2013-09-25 01:35:00
8:55 PM,70.3,67.6,91,29.84,7.0,Calm,Calm,-,N/A,,Unknown,0,2013-09-25 01:55:00
9:15 PM,70.7,68.0,91,29.85,7.0,Calm,Calm,-,N/A,,Unknown,0,2013-09-25 02:15:00
9:35 PM,70.7,68.0,91,29.85,7.0,Calm,Calm,-,N/A,,Unknown,0,2013-09-25 02:35:00
9:55 PM,70.2,67.5,91,29.85,7.0,Calm,Calm,-,N/A,,Unknown,0,2013-09-25 02:55:00
10:15 PM,69.8,67.1,91,29.85,7.0,Calm,Calm,-,N/A,,Unknown,0,2013-09-25 03:15:00
10:35 PM,68.9,66.4,92,29.85,7.0,Calm,Calm,-,N/A,,Unknown,0,2013-09-25 03:35:00
10:55 PM,69.1,66.4,91,29.85,7.0,Calm,Calm,-,N/A,,Unknown,0,2013-09-25 03:55:00
11:15 PM,68.2,65.5,91,29.85,7.0,Calm,Calm,-,N/A,,Unknown,0,2013-09-25 04:15:00
11:35 PM,67.1,64.8,92,29.84,4.0,East,3.5,-,N/A,,Mist,80,2013-09-25 04:35:00
11:55 PM,66.4,63.9,92,29.84,4.0,Calm,Calm,-,N/A,,Mist,0,2013-09-25 04:55:00